Regional Weather Roundup
Issued by NWS

Home | Current Version | Previous Version | Graphics & Text | Print | Product List | Glossary On
Versions: 1 2 3 4 5 6 7 8 9 10 11 12 13 14 15 16 17 18 19 20 21 22 23 24 25 26 27 28 29 30 31 32 33 34 35 36 37 38 39 40 41 42 43 44 45 46 47 48 49 50
000
ASUS43 KLMK 261102
RWRKY
KENTUCKY REGIONAL WEATHER ROUNDUP
NATIONAL WEATHER SERVICE LOUISVILLE KY
600 AM EST SUN FEB 26 2017

NOTE "FAIR" INDICATES FEW OR NO CLOUDS BELOW 12,000 FEET
WITH NO SIGNIFICANT WEATHER AND/OR OBSTRUCTIONS TO VISIBILITY.

KYZ001>023-026-027-061>063-070>075-261200-
WESTERN AND SOUTH CENTRAL KENTUCKY

CITY           SKY/WX    TMP DP  RH WIND       PRES   REMARKS
PADUCAH        CLEAR     23  17  78 SE5       30.18R WCI  17
HENDERSON      CLEAR     21  16  79 CALM      30.20R
OWENSBORO      CLEAR     25  20  81 CALM      30.22R
HOPKINSVILLE   CLEAR     27  20  73 CALM      30.20R
BOWLING GREEN  CLEAR     25  20  81 CALM      30.22R
GLASGOW        NOT AVBL
$$

KYZ024-025-028>034-038-045-046-053-261200-
NORTH CENTRAL KENTUCKY

CITY           SKY/WX    TMP DP  RH WIND       PRES   REMARKS
LOUISVILLE/SDF CLEAR     28  14  55 W3        30.20R
LOUISVILLE/LOU CLEAR     27  16  63 CALM      30.20R
FORT KNOX      CLEAR     21  17  85 CALM      30.18R
$$

KYZ035>037-039>044-047>052-055>060-089>105-261200-
NORTHEAST KENTUCKY

CITY           SKY/WX    TMP DP  RH WIND       PRES   REMARKS
LEXINGTON      CLEAR     24  16  71 W5        30.17R WCI  18
COVINGTON      CLEAR     23  15  71 W5        30.14R WCI  17
FRANKFORT      CLEAR     22  14  71 SW5       30.17R WCI  16
$$

KYZ054-064>069-076>088-106>120-261200-
SOUTHEAST KENTUCKY

CITY           SKY/WX    TMP DP  RH WIND       PRES   REMARKS
JACKSON        CLEAR     25  18  74 VRB3      30.14R
LONDON         CLEAR     23  20  88 CALM      30.16R
SOMERSET       CLEAR     23  23 100 CALM      30.21R
MIDDLESBORO    CLEAR     25  22  91 CALM      30.18R
MONTICELLO     SUNNY     17  15  92 W6        30.21R WCI   9
$$





USA.gov is the U.S. government's official web portal to all federal, state and local government web resources and services.